Flag for China Weather past 2 weeks in Lanchow, Gansu, China

Now
91 °F

Passing clouds.


Feels Like: 89 °F
Forecast: 68 / 86 °F
Wind: 6 mph from Northeast

Location: Lanzhou / Zhongchuan

Current Time: Aug 1, 2015 at 4:12:42 PM

Latest Report: Aug 1, 2015 at 3:00 PM


Visibility: N/A

Pressure: 29.92 "Hg (25.22 "Hg at 1531m altitude)

Humidity: 28%

Dew point: 54 °F

Location of LanchowLocation

Historic Weather in Lanchow — Graph

°F

Lanchow temperature yesterday

Maximum temperature yesterday: 90 °F (at 2:00 PM)
Minimum temperature yesterday: 61 °F (at 6:00 AM)
Average temperature yesterday: 76 °F

Past Weeks' High & Low Weather Summary

 TemperatureHumidityPressure
High95 °F (Jul 27, 4:00 PM)100% (Jul 18, 5:00 AM)30.21 "Hg (Jul 18, 5:00 AM)
Low46 °F (Jul 19, 6:00 AM)15% (Jul 27, 4:00 PM)29.77 "Hg (Jul 27, 6:00 PM)
Average70 °F52%29.97 "Hg
* Reported Jul 17 3:00 PM — Aug 1 3:00 PM, Lanchow, Weather by CustomWeather, © 2015

Note: Actual official high and low records may vary slightly from our data, if they occured in-between our weather recording intervals... More about our weather records

Advertising

Lanchow weather history for previous 24 hours

 ConditionsComfort  
Time TempWeatherWind HumidityBarometerVisibility
3:00 PM
Sat, Aug 1
91 °FPassing clouds.6 mph28%29.92 "HgN/A
2:00 PM88 °FPassing clouds.6 mph38%29.95 "HgN/A
1:00 PM88 °FSunny.3 mph38%29.95 "Hg10 mi
12:00 PM82 °FSunny.1 mph45%29.98 "Hg10 mi
11:00 AM79 °FSunny.1 mph51%29.98 "Hg10 mi
10:00 AM77 °FSunny.No wind54%29.98 "Hg10 mi
9:00 AM73 °FSunny.1 mph57%29.95 "Hg10 mi
8:00 AM68 °FSunny.3 mph64%29.95 "Hg10 mi
7:00 AM64 °FClear.6 mph68%29.95 "Hg10 mi
6:00 AM63 °FClear.3 mph68%29.95 "Hg10 mi
5:00 AM64 °FClear.6 mph64%29.95 "Hg10 mi
4:00 AM64 °FClear.3 mph68%29.95 "Hg10 mi
3:00 AM64 °FClear.6 mph64%29.95 "Hg10 mi
2:00 AM66 °FClear.3 mph60%29.95 "Hg10 mi
1:00 AM70 °FClear.6 mph53%29.95 "Hg10 mi
12:00 AM72 °FClear.6 mph50%29.95 "Hg10 mi
11:00 PM
Fri, Jul 31
72 °FClear.6 mph50%29.92 "Hg10 mi
10:00 PM73 °FClear.6 mph53%29.92 "Hg10 mi
9:00 PM75 °FSunny.6 mph54%29.92 "Hg10 mi
8:00 PM79 °FPassing clouds.3 mph48%29.89 "HgN/A
7:00 PM81 °FSunny.8 mph51%29.89 "Hg10 mi
6:00 PM86 °FSunny.6 mph46%29.86 "Hg10 mi
5:00 PM88 °FSunny.6 mph35%29.89 "Hg10 mi
4:00 PM84 °FPassing clouds.6 mph43%29.89 "HgN/A
Weather by CustomWeather, © 2015

See weather overviewHow to use our weather pages